Retour au catalogue

STARLINK-36436

ActifCommunicationsVLEO
NORAD 67626·PAYLOAD·🇺🇸 United States

Lancé Jan 30, 2026 depuis Cape Canaveral Space Force Station

Loading…

Prochains Passages (prochaines 24 heures)

TLE

FraisSource: CelesTrak SupGP

Époque: Sep 15, 2026, 03:25 UTC

1 67626C 26020K   26258.14284722  .00061444  00000+0  22258-2 0  2587
2 67626  43.0028 149.6092 0001355 280.6419 336.6502 15.27543327    16

Suivez STARLINK-36436 en temps réel avec AllMySat

Download on the App Store